Location: �perlecques
(50.8057°N, 2.1521°E)
Time: 03:25:27
(UTC+00:00)

Envisat - Visible Passes

Search period start: 01 December 2023 00:00
Search period end: 11 December 2023 00:00
Orbit: 762 x 764 km, 98.3° (Epoch: 30 November)

Date Brightness Start Highest point End Pass type
(mag) Time Alt. Az. Time Alt. Az. Time Alt. Az.
01 Dec 5.4 04:07:45 10° N 04:08:03 12° N 04:08:03 12° N visible
02 Dec 5.2 05:10:18 10° N 05:10:26 11° NNW 05:10:26 11° NNW visible
03 Dec 5.4 04:32:27 10° N 04:32:39 11° N 04:32:39 11° N visible
